Location: Gazon
(48.1318°N, 1.2708°W)
Time: 02:24:52
(UTC+00:00)

Abrixas rocket - Pass Details

Date: 18 September 2020
Orbit: 327 x 334 km, 48.4° (Epoch: 29 October)

Event Time Altitude Azimuth Distance (km) Brightness Sun altitude
Rises 19:22:36 0° 260° (W) 2,092 7.0 -12.7°
Reaches altitude 10° 19:24:36 10° 260° (W) 1,255 5.7 -13.0°
Maximum altitude 19:27:23 87° 175° (S) 334 1.7 -13.4°
Enters shadow 19:28:36 30° 83° (E) 618 2.6 -13.6°
